Powrót do katalogu

STARLINK-35498

AktywnyŁącznośćVLEO
NORAD 67017·PAYLOAD·🇺🇸 United States

Wystrzelony Dec 10, 2025 z Vandenberg Space Force Base

Loading…

Następne Przeloty (najbliższe 24 godziny)

TLE

ŚwieżeSource: CelesTrak SupGP

Epoka: Sep 14, 2026, 23:04 UTC

1 67017C 25293Q   26257.96159722 -.00001689  00000+0 -14158-3 0  2579
2 67017  70.0019 337.1577 0003519 269.5685 349.5369 14.98325151    11

Śledź STARLINK-35498 w czasie rzeczywistym z AllMySat

Download on the App Store